DELTA 1 DEB, 42652

Orbit data source: Space-Track

DELTA 1 DEB, 42652 is space debris in SSO originally from a launch on Thu, 12 Jun 1975 UTC launched from the Air Force Western Test Range (AFWTR). Debris objects in space refer to the collection of defunct objects orbiting the Earth. Examples of debris include non-operational satellites, rocket bodies, and fragments generated from explosions, collisions, or faulty payload assembly.

Loading next visibility...
Identifier
42652, 1975-052MM
Orbit
SSO
Country
Flag of USUS
Related business
Manufacturer
Unknown
Mission
Spacecraft
Bus & Motor
Unknown
Mass
Unknown
Launch date (UTC)
1975-06-12 (51 years ago)
Launch vehicle
Unknown
Launch site
Air Force Western Test Range (AFWTR)
Object type
Payload
Rocket body
Debris
Shape & HBR
Unknown shape, 0.1 m
Radar Cross Section
Small (<0.1 m²)

Expand to show TLE details & history
Last TLE update: 1 day ago

TLE from 1 day ago
0 DELTA 1 DEB
1 42652U 75052MM  26123.65587587  .00000182  00000-0  44983-3 0  9995
2 42652  99.7717 272.3533 0073545  79.7456 293.1463 13.33175118605325
Epoch: 2026-05-03T15:44Z
TLE epoch observation values (Epoch: 2026-05-03T15:44:27.675Z)
Latitude
11.89517°
Longitude
172.61332°
Altitude
1,115.438 km
Speed
7.306 km/s
True Right ascension
18h 01m 08s
True Declination
11° 49' 45"
Sunlit
Object was in full shadow at epoch
Visualization orbit readout
Latitude
Unknown
Longitude
Unknown
Altitude
Unknown
Speed
Unknown
Apparent Right ascension
Unknown
Apparent Declination
Unknown
Sunlit
N/A
Visualization observer readout
Local Sidereal Time
09:45:25
Azimuth
Unknown
Elevation
Unknown
Doppler factor
Unknown
Orbital elements
Apogee altitude
1,187.373 km
Perigee altitude
1,076.904 km
Semi-major axis
7,510.275 km
Eccentricity
0.00735
Inclination
99.7717°
RAAN
272.3533°
Arg. of periapsis
79.7456°
True anomaly
292.36859°
Mean anomaly
293.1463°
Eccentric anomaly
292.75772°
Mean motion
3.33472 °/min
Orbital period
107.96 mins
BSTAR
0.00044983
Loading maneuver chart data...
Computing Atmospheric mass density...
Loading historical data...
Loading historical data...
Loading historical data...
Loading historical data...
Loading historical data...
Loading historical data...
Loading historical data...

Documentation

Showing up to 5 results
|